[[{"header":{"parameterUnit":"m.s-1","parameterCategory":2,"la1":30.2991,"la2":30.254,"lo1":-89.0895,"lo2":-89.0444,"dy":0.0017,"dx":0.0017,"nx":28,"ny":28,"refTime":"2024-03-05T09:00:00:Z","depth":"0","parameterNumber":2,"parameterNumberName":"U-component_of_CURRENTS"},"data":[0,0,0,0,0,0,0,0,0,0,0,0,0,0,0,0,0,0,0,0,0,0,0,0,0,0,0,0,0,0,0,0,0,0,0,0,0,0,0,0,0,0,0,0,0,0,0,0,0,0,0,0,0,0,0,0,0,0,-0.2673,-0.2674,0,-0.2701,-0.2701,-0.2701,-0.2642,-0.264,-0.2639,-0.2637,-0.2541,-0.254,-0.2539,0,0,0,0,0,0,0,0,0,0,0,0,0,-0.2539,-0.2542,-0.2673,-0.2674,-0.2674,-0.2701,-0.2701,-0.2701,-0.2642,-0.264,-0.2638,-0.2637,-0.2541,-0.254,-0.2539,0,0,0,0,0,0,0,0,0,0,0,0,0,-0.2581,-0.2543,-0.2673,-0.2652,-0.265,-0.2701,-0.2701,-0.2701,-0.2642,-0.264,-0.2638,-0.2636,-0.2542,-0.254,-0.2538,-0.2573,0,0,-0.2533,-0.2532,0,0,0,0,0,0,0,0,-0.2579,-0.2586,-0.2654,-0.2653,-0.2652,-0.267,-0.2619,-0.2654,-0.2643,-0.2641,-0.2637,-0.2635,-0.2577,-0.2572,-0.2578,-0.2568,-0.2564,-0.2533,-0.2532,-0.2531,-0.2531,0,0,0,0,0,0,0,-0.2576,-0.2584,-0.2679,-0.2655,-0.2654,-0.2631,-0.2634,-0.2625,-0.2615,-0.2641,-0.2638,-0.2649,-0.2575,-0.258,-0.2575,-0.2563,-0.2533,-0.2531,-0.253,-0.253,-0.2587,-0.2589,0,0,0,0,0,0,-0.2587,-0.2582,-0.2679,-0.2681,-0.2614,-0.2636,-0.2639,-0.2662,-0.2618,-0.2612,-0.2651,-0.2646,-0.2584,-0.2577,-0.2571,-0.2611,-0.2531,-0.2529,-0.2528,-0.2584,-0.2587,-0.259,0,0,0,0,0,0,-0.2584,-0.2596,-0.2677,-0.2634,-0.2644,-0.2641,-0.2667,-0.2664,-0.2669,-0.2628,-0.2617,-0.2659,-0.2582,-0.2574,-0.2578,-0.2607,-0.2529,-0.2527,-0.2581,-0.2585,-0.2589,-0.269,0,0,0,0,0,0,-0.258,-0.2595,-0.2612,-0.2636,-0.2647,-0.2722,-0.267,-0.2667,-0.2682,-0.2676,-0.2632,-0.262,-0.258,-0.2581,-0.2576,-0.2603,-0.2526,-0.2578,-0.2583,-0.2588,-0.2683,-0.2697,-0.2708,0,0,0,0,0,-0.2575,-0.2619,-0.2613,-0.2625,-0.2673,-0.2724,-0.2728,-0.2714,-0.2685,-0.2705,-0.2674,-0.2622,-0.2607,-0.2582,-0.2575,-0.2602,-0.2576,-0.2582,-0.2587,-0.2678,-0.2694,-0.2708,0,0,0,0,0,0,-0.2564,-0.2619,-0.2612,-0.2667,-0.2697,-0.2716,-0.2738,-0.2728,-0.2723,-0.2707,-0.2654,-0.2644,-0.266,-0.2628,-0.2601,-0.2637,-0.2584,-0.2589,-0.2655,-0.267,-0.2682,-0.2688,-0.2524,0,0,0,0,0,-0.2575,-0.2623,-0.2661,-0.2703,-0.2724,-0.2731,-0.2748,-0.2743,-0.2745,-0.274,-0.2707,-0.2683,-0.2684,-0.2672,-0.2663,-0.2683,-0.2654,-0.2699,-0.2711,-0.2722,-0.2726,-0.2721,-0.2732,-0.2609,-0.2609,-0.2609,0,0,-0.258,-0.2618,-0.2642,-0.2704,-0.2722,-0.2771,-0.2735,-0.2774,-0.2802,-0.2731,-0.2748,-0.2726,-0.2702,-0.2724,-0.2728,-0.2695,-0.2746,-0.2729,-0.2738,-0.2736,-0.2728,-0.274,-0.275,-0.2613,-0.2612,-0.2612,0,0,-0.2627,-0.2653,-0.271,-0.2746,-0.2792,-0.2804,-0.2821,-0.2844,-0.2842,-0.2871,-0.2827,-0.2828,-0.282,-0.2808,-0.2803,-0.2884,-0.2817,-0.288,-0.2937,-0.2933,-0.2943,-0.2951,-0.294,-0.2946,-0.2879,-0.288,-0.288,0,-0.2625,-0.2705,-0.2731,-0.2794,-0.2826,-0.2825,-0.2882,-0.2898,-0.2911,-0.2919,-0.2888,-0.2895,-0.2864,-0.2899,-0.2921,-0.291,-0.2891,-0.2878,-0.2947,-0.2955,-0.2961,-0.2948,-0.2953,-0.2885,-0.2885,-0.2884,-0.2884,0,-0.2713,-0.2774,-0.2814,-0.289,-0.2928,-0.2981,-0.3009,-0.3029,-0.302,-0.3026,-0.3054,-0.3024,-0.3017,-0.3021,-0.2992,-0.303,-0.2999,-0.2967,-0.2903,-0.2979,-0.2961,-0.2965,-0.2893,-0.2891,-0.289,-0.2888,0,0,-0.2704,-0.2849,-0.2856,-0.2909,-0.2981,-0.3021,-0.3076,-0.3128,-0.3153,-0.316,-0.3186,-0.3198,-0.316,-0.3153,-0.3116,-0.3116,-0.3143,-0.3061,-0.3058,-0.3041,-0.313,-0.2957,-0.2943,-0.3117,-0.3118,-0.3119,-0.3103,0,-0.2756,-0.2895,-0.2943,-0.3049,-0.3121,-0.314,-0.3191,-0.3228,-0.3239,-0.3259,-0.3246,-0.3256,-0.3218,-0.3202,-0.3203,-0.3146,-0.3156,-0.315,-0.3068,-0.3066,-0.2893,-0.2943,-0.2768,-0.2725,-0.3106,-0.3107,-0.3107,0,-0.2808,-0.2904,-0.3028,-0.3142,-0.3169,-0.322,-0.3282,-0.3325,-0.3357,-0.3359,-0.3367,-0.334,-0.3337,-0.3289,-0.3255,-0.3249,-0.3205,-0.3171,-0.3169,-0.2969,-0.2898,-0.271,-0.2716,-0.264,-0.3112,-0.3111,-0.3111,0,-0.2792,-0.2945,-0.3046,-0.3089,-0.3221,-0.3259,-0.3303,-0.3352,-0.3379,-0.3407,-0.341,-0.3412,-0.3382,-0.3352,-0.3277,-0.3259,-0.3235,-0.3194,-0.3017,-0.3004,-0.2818,-0.2786,-0.2725,-0.3196,-0.3197,-0.3197,-0.3197,0,-0.2823,-0.2899,-0.305,-0.311,-0.3209,-0.3275,-0.3342,-0.3383,-0.3418,-0.3443,-0.3445,-0.3443,-0.3393,-0.3365,-0.3308,-0.3162,-0.3258,-0.3029,-0.2986,-0.2849,-0.2821,-0.2712,-0.2754,-0.3196,-0.3196,-0.3196,-0.3196,0,-0.2791,-0.2894,-0.3023,-0.3173,-0.3213,-0.3276,-0.3364,-0.34,-0.3435,-0.3457,-0.346,-0.3456,-0.3383,-0.3344,-0.3275,-0.3162,-0.299,-0.3016,-0.2851,-0.2785,-0.2458,-0.2514,-0.2456,-0.2393,-0.2768,-0.2764,-0.276,0,-0.2793,-0.2864,-0.3049,-0.3114,-0.3184,-0.3277,-0.3328,-0.3397,-0.3422,-0.3455,-0.3454,-0.3408,-0.3354,-0.3191,-0.2968,-0.2816,-0.286,-0.2585,-0.2501,-0.241,-0.2445,-0.2511,-0.2469,-0.2318,-0.2311,-0.2306,-0.2301,0,-0.2793,-0.2859,-0.2965,-0.3104,-0.3187,-0.3265,-0.3335,-0.3356,-0.3409,-0.3411,-0.3389,-0.3354,-0.3144,-0.2844,-0.2623,-0.2523,-0.247,-0.2452,-0.2414,-0.2126,-0.2144,-0.2069,-0.2377,-0.225,-0.2255,-0.2259,-0.2261,-0.2263,-0.2772,-0.284,-0.297,-0.3081,-0.317,-0.3211,-0.3205,-0.3248,-0.3249,-0.3146,-0.3209,-0.2993,-0.2718,-0.2315,-0.2217,-0.1875,-0.2052,-0.177,-0.1861,-0.1948,-0.183,-0.2005,-0.1785,-0.1787,-0.1789,-0.1791,-0.1792,0,-0.2748,-0.2819,-0.2928,-0.3044,-0.3074,-0.3137,-0.3168,-0.3089,-0.3012,-0.2851,-0.2738,-0.2312,-0.203,-0.181,-0.1442,-0.1311,-0.1329,-0.1318,-0.1398,-0.1394,-0.1561,-0.1475,-0.1108,-0.1108,-0.1108,-0.1109,-0.1109,-0.1109,-0.2742,-0.2817,-0.2874,-0.2908,-0.295,-0.2902,-0.287,-0.2737,-0.2562,-0.216,-0.1809,-0.1579,-0.145,-0.1359,-0.1129,-0.1061,-0.1082,-0.1049,-0.1151,-0.1279,-0.1329,-0.1377,-0.1301,-0.0904,-0.0904,-0.0881,-0.0881,-0.0881]},{"header":{"parameterUnit":"m.s-1","parameterCategory":2,"la1":30.2991,"la2":30.254,"lo1":-89.0895,"lo2":-89.0444,"dy":0.0017,"dx":0.0017,"nx":28,"ny":28,"refTime":"2024-03-05T09:00:00:Z","depth":"0","parameterNumber":3,"parameterNumberName":"V-component_of_CURRENTS"},"data":[0,0,0,0,0,0,0,0,0,0,0,0,0,0,0,0,0,0,0,0,0,0,0,0,0,0,0,0,0,0,0,0,0,0,0,0,0,0,0,0,0,0,0,0,0,0,0,0,0,0,0,0,0,0,0,0,0,0,-0.1326,-0.1324,0,-0.122,-0.1219,-0.1218,-0.1158,-0.1158,-0.1158,-0.1158,-0.1032,-0.1029,-0.1026,0,0,0,0,0,0,0,0,0,0,0,0,0,-0.1387,-0.1387,-0.1326,-0.1324,-0.1323,-0.122,-0.1219,-0.1217,-0.1158,-0.1158,-0.1158,-0.1158,-0.1033,-0.1029,-0.1025,0,0,0,0,0,0,0,0,0,0,0,0,0,-0.1329,-0.1386,-0.1326,-0.1282,-0.1277,-0.1221,-0.1219,-0.1217,-0.1158,-0.1158,-0.1158,-0.1158,-0.1034,-0.103,-0.1025,-0.0999,0,0,-0.101,-0.1008,0,0,0,0,0,0,0,0,-0.1332,-0.1326,-0.1289,-0.1285,-0.1279,-0.1203,-0.1194,-0.1143,-0.1158,-0.1203,-0.1158,-0.1158,-0.1088,-0.1078,-0.1059,-0.0993,-0.0988,-0.101,-0.1007,-0.1005,-0.1003,0,0,0,0,0,0,0,-0.1336,-0.133,-0.1283,-0.1288,-0.1282,-0.1237,-0.1229,-0.1184,-0.1147,-0.1199,-0.1194,-0.1184,-0.1084,-0.1063,-0.1055,-0.0986,-0.101,-0.1005,-0.1002,-0.1001,-0.09,-0.0901,0,0,0,0,0,0,-0.1355,-0.1334,-0.1287,-0.128,-0.1306,-0.1236,-0.1227,-0.1227,-0.1148,-0.1136,-0.1184,-0.1181,-0.1072,-0.1061,-0.105,-0.102,-0.1005,-0.1,-0.0997,-0.09,-0.09,-0.0901,0,0,0,0,0,0,-0.1357,-0.1353,-0.1291,-0.1304,-0.1294,-0.1236,-0.1235,-0.1225,-0.1205,-0.1137,-0.1124,-0.1175,-0.1071,-0.1057,-0.1012,-0.1014,-0.0998,-0.0993,-0.09,-0.09,-0.0901,-0.0955,0,0,0,0,0,0,-0.136,-0.1354,-0.1366,-0.1306,-0.1294,-0.1263,-0.1235,-0.1223,-0.1198,-0.1194,-0.1125,-0.1112,-0.107,-0.1019,-0.1007,-0.1007,-0.099,-0.09,-0.09,-0.09,-0.0953,-0.0957,-0.0961,0,0,0,0,0,-0.1362,-0.1381,-0.1367,-0.1361,-0.131,-0.1263,-0.1253,-0.121,-0.1199,-0.1191,-0.1144,-0.1115,-0.1014,-0.1015,-0.1001,-0.1,-0.0899,-0.09,-0.09,-0.0951,-0.0956,-0.0961,0,0,0,0,0,0,-0.1422,-0.1375,-0.1359,-0.1365,-0.132,-0.1254,-0.1246,-0.1216,-0.1173,-0.117,-0.111,-0.1094,-0.1057,-0.1022,-0.1026,-0.0974,-0.0955,-0.0952,-0.0998,-0.1003,-0.1007,-0.102,-0.0986,0,0,0,0,0,-0.144,-0.1439,-0.1381,-0.1388,-0.1366,-0.1308,-0.1286,-0.1253,-0.1205,-0.1186,-0.1137,-0.1089,-0.1048,-0.1022,-0.0979,-0.0945,-0.0923,-0.0938,-0.0942,-0.0946,-0.0948,-0.0926,-0.0929,-0.0902,-0.0902,-0.0902,0,0,-0.1471,-0.1441,-0.1444,-0.1399,-0.1361,-0.1332,-0.1294,-0.1263,-0.124,-0.1179,-0.1141,-0.1099,-0.1043,-0.1006,-0.0988,-0.0977,-0.0942,-0.0947,-0.095,-0.095,-0.0927,-0.093,-0.0932,-0.0903,-0.0903,-0.0903,0,0,-0.1509,-0.1497,-0.1496,-0.1458,-0.14,-0.136,-0.1355,-0.1288,-0.1261,-0.1217,-0.1173,-0.1136,-0.1066,-0.1028,-0.1001,-0.1002,-0.0965,-0.099,-0.1016,-0.0995,-0.0997,-0.0998,-0.0976,-0.0975,-0.099,-0.099,-0.0991,0,-0.1545,-0.1532,-0.149,-0.1465,-0.1439,-0.1377,-0.136,-0.1322,-0.1251,-0.1231,-0.1215,-0.1124,-0.1078,-0.1036,-0.1035,-0.1011,-0.0993,-0.1002,-0.1001,-0.1002,-0.1002,-0.0979,-0.0978,-0.0993,-0.0993,-0.0993,-0.0992,0,-0.1564,-0.1552,-0.1547,-0.1497,-0.1467,-0.1443,-0.1381,-0.1352,-0.1316,-0.1274,-0.1228,-0.1166,-0.1114,-0.1097,-0.1062,-0.1042,-0.1026,-0.1011,-0.0992,-0.1009,-0.0983,-0.098,-0.0997,-0.0996,-0.0995,-0.0995,0,0,-0.1639,-0.1575,-0.1571,-0.1551,-0.1481,-0.1456,-0.1424,-0.1373,-0.1362,-0.1296,-0.128,-0.1205,-0.1173,-0.1141,-0.1096,-0.1075,-0.1063,-0.1049,-0.1046,-0.1032,-0.1017,-0.0844,-0.0824,-0.105,-0.1049,-0.1049,-0.0998,0,-0.166,-0.1637,-0.1592,-0.157,-0.1551,-0.1488,-0.1466,-0.1416,-0.1375,-0.1346,-0.1281,-0.1243,-0.1189,-0.117,-0.114,-0.108,-0.1059,-0.1079,-0.0997,-0.0995,-0.0843,-0.0815,-0.0701,-0.0631,-0.0995,-0.0995,-0.0994,0,-0.168,-0.1662,-0.165,-0.1602,-0.1589,-0.1567,-0.1526,-0.1496,-0.1439,-0.1408,-0.1358,-0.1307,-0.1247,-0.1216,-0.1119,-0.1134,-0.1082,-0.104,-0.1037,-0.0853,-0.0815,-0.0671,-0.0612,-0.0425,-0.099,-0.099,-0.0991,0,-0.1742,-0.1697,-0.1693,-0.1673,-0.1615,-0.1602,-0.1572,-0.152,-0.15,-0.145,-0.1435,-0.1356,-0.1313,-0.1241,-0.1117,-0.1129,-0.1017,-0.1025,-0.0823,-0.0812,-0.0684,-0.0659,-0.0434,-0.0974,-0.0975,-0.0975,-0.0975,0,-0.1775,-0.1768,-0.1722,-0.1717,-0.1715,-0.1657,-0.165,-0.161,-0.157,-0.155,-0.1472,-0.1437,-0.1318,-0.1225,-0.1138,-0.0938,-0.1024,-0.0811,-0.0775,-0.0696,-0.0674,-0.0479,-0.0449,-0.0973,-0.0973,-0.0974,-0.0974,0,-0.1831,-0.1801,-0.1793,-0.1751,-0.174,-0.1739,-0.1692,-0.1691,-0.1641,-0.1618,-0.16,-0.1493,-0.1343,-0.1203,-0.107,-0.0934,-0.0652,-0.0712,-0.0612,-0.0562,-0.0165,-0.0144,0.0085,0.0195,-0.048,-0.0475,-0.0471,0,-0.1854,-0.1861,-0.1831,-0.1834,-0.1813,-0.18,-0.1794,-0.1736,-0.1726,-0.1642,-0.1635,-0.1484,-0.1353,-0.1053,-0.0783,-0.0548,-0.0474,-0.0307,-0.029,-0.0091,-0.0045,-0.0042,0.003,-0.0166,-0.0159,-0.0154,-0.015,0,-0.1903,-0.1894,-0.1887,-0.1903,-0.1898,-0.1886,-0.1866,-0.1862,-0.1791,-0.1742,-0.1648,-0.1536,-0.1186,-0.0807,-0.044,-0.031,-0.0119,-0.019,-0.0023,0.0212,0.0264,0.037,-0.0263,-0.0105,-0.011,-0.0113,-0.0115,-0.0117,-0.1938,-0.1951,-0.1951,-0.1962,-0.1965,-0.196,-0.1933,-0.1893,-0.1843,-0.1663,-0.1607,-0.1278,-0.0793,-0.0228,-0.007,0.0408,0.0252,0.0517,0.0516,0.0495,0.0655,0.0153,0.0389,0.0388,0.0386,0.0385,0.0384,0,-0.1986,-0.1993,-0.2011,-0.2014,-0.2027,-0.2005,-0.1969,-0.1886,-0.1794,-0.1506,-0.1321,-0.0622,-0.0134,0.0315,0.0897,0.1096,0.1091,0.1162,0.1162,0.1193,0.0731,0.0806,0.1194,0.1194,0.1194,0.1194,0.1193,0.1193,-0.201,-0.2039,-0.2044,-0.2067,-0.2063,-0.2029,-0.1989,-0.1814,-0.1567,-0.1007,-0.0485,-0.0106,0.0454,0.1145,0.1613,0.1638,0.176,0.1747,0.1782,0.1441,0.1379,0.132,0.1404,0.1911,0.1912,0.2269,0.2272,0.2275]}],[{"header":{"parameterUnit":"m.s-1","parameterCategory":2,"la1":30.2991,"la2":30.254,"lo1":-89.0895,"lo2":-89.0444,"dy":0.0017,"dx":0.0017,"nx":28,"ny":28,"refTime":"2024-03-05T09:00:00:Z","depth":"2","parameterNumber":2,"parameterNumberName":"U-component_of_CURRENTS"},"data":[0,0,0,0,0,0,0,0,0,0,0,0,0,0,0,0,0,0,0,0,0,0,0,0,0,0,0,0,0,0,0,0,0,0,0,0,0,0,0,0,0,0,0,0,0,0,0,0,0,0,0,0,0,0,0,0,0,0,-0.1365,-0.1366,0,-0.1419,-0.1419,-0.1419,-0.1408,-0.1408,-0.1408,-0.1408,-0.1437,-0.1438,-0.1439,0,0,0,0,0,0,0,0,0,0,0,0,0,-0.1234,-0.1236,-0.1365,-0.1366,-0.1367,-0.1419,-0.1419,-0.1419,-0.1408,-0.1408,-0.1408,-0.1408,-0.1437,-0.1438,-0.1439,0,0,0,0,0,0,0,0,0,0,0,0,0,-0.1282,-0.1237,-0.1364,-0.1374,-0.1377,-0.1419,-0.1419,-0.1419,-0.1409,-0.1408,-0.1408,-0.1408,-0.1436,-0.1438,-0.1439,-0.1455,0,0,-0.1444,-0.1444,0,0,0,0,0,0,0,0,-0.1279,-0.1286,-0.1372,-0.1374,-0.1376,-0.1414,-0.1384,-0.1433,-0.1409,-0.1388,-0.1408,-0.1407,-0.1433,-0.1434,-0.1434,-0.1457,-0.1458,-0.1444,-0.1445,-0.1445,-0.1446,0,0,0,0,0,0,0,-0.1276,-0.1284,-0.1378,-0.1373,-0.1376,-0.1371,-0.1377,-0.1393,-0.1405,-0.139,-0.1391,-0.141,-0.1432,-0.1432,-0.1435,-0.1458,-0.1444,-0.1445,-0.1446,-0.1447,-0.1514,-0.1515,0,0,0,0,0,0,-0.1288,-0.1281,-0.1376,-0.138,-0.1335,-0.1374,-0.138,-0.1395,-0.1405,-0.1409,-0.141,-0.141,-0.143,-0.1433,-0.1436,-0.1488,-0.1445,-0.1447,-0.1448,-0.1513,-0.1515,-0.1516,0,0,0,0,0,0,-0.1285,-0.1295,-0.1374,-0.1338,-0.1349,-0.1378,-0.1394,-0.1397,-0.1402,-0.1423,-0.1424,-0.1415,-0.143,-0.1434,-0.1464,-0.1488,-0.1447,-0.1449,-0.1512,-0.1514,-0.1515,-0.1571,0,0,0,0,0,0,-0.128,-0.1294,-0.1307,-0.1339,-0.1352,-0.1412,-0.1396,-0.1398,-0.1418,-0.1417,-0.1427,-0.1429,-0.143,-0.1462,-0.1466,-0.1489,-0.145,-0.1511,-0.1513,-0.1515,-0.1568,-0.1574,-0.158,0,0,0,0,0,-0.1275,-0.1304,-0.1307,-0.132,-0.137,-0.1414,-0.1419,-0.1433,-0.1419,-0.1431,-0.1438,-0.1429,-0.1475,-0.1465,-0.1469,-0.1493,-0.151,-0.1513,-0.1515,-0.1566,-0.1573,-0.158,0,0,0,0,0,0,-0.1255,-0.1307,-0.1311,-0.1354,-0.1386,-0.1416,-0.143,-0.1437,-0.1449,-0.145,-0.1447,-0.1451,-0.1483,-0.148,-0.1468,-0.1515,-0.1489,-0.1492,-0.1526,-0.1533,-0.1539,-0.1532,-0.1451,0,0,0,0,0,-0.1259,-0.1295,-0.1335,-0.1372,-0.1381,-0.1401,-0.1419,-0.1438,-0.1459,-0.1463,-0.1472,-0.1481,-0.1494,-0.1508,-0.1519,-0.1552,-0.1545,-0.1566,-0.1572,-0.1577,-0.1573,-0.1594,-0.1602,-0.1522,-0.1522,-0.1522,0,0,-0.1262,-0.1299,-0.1318,-0.1371,-0.1384,-0.1417,-0.1408,-0.145,-0.1481,-0.1467,-0.1499,-0.1503,-0.1505,-0.154,-0.1554,-0.1543,-0.1597,-0.158,-0.1584,-0.1577,-0.1597,-0.1605,-0.1612,-0.1524,-0.1523,-0.1523,0,0,-0.13,-0.1312,-0.1354,-0.1373,-0.1423,-0.1441,-0.1454,-0.149,-0.1502,-0.1545,-0.1535,-0.1557,-0.1581,-0.159,-0.1595,-0.1639,-0.1624,-0.1639,-0.167,-0.1691,-0.1697,-0.1703,-0.1708,-0.1714,-0.1646,-0.1646,-0.1646,0,-0.1314,-0.1344,-0.1373,-0.1408,-0.1427,-0.1449,-0.1484,-0.1505,-0.1555,-0.1567,-0.1565,-0.1596,-0.1605,-0.1633,-0.1649,-0.1653,-0.1653,-0.1646,-0.1699,-0.1704,-0.1709,-0.1713,-0.1719,-0.1649,-0.1649,-0.1649,-0.1648,0,-0.1347,-0.1382,-0.14,-0.1449,-0.1488,-0.1511,-0.1554,-0.1581,-0.1597,-0.1622,-0.1656,-0.1668,-0.1685,-0.1692,-0.1687,-0.1724,-0.1709,-0.1702,-0.1682,-0.1721,-0.1722,-0.1727,-0.1654,-0.1652,-0.1652,-0.1651,0,0,-0.1371,-0.1413,-0.1422,-0.1444,-0.1496,-0.1537,-0.1584,-0.1628,-0.1652,-0.1691,-0.1716,-0.1745,-0.1748,-0.1751,-0.1749,-0.1766,-0.1809,-0.1752,-0.1752,-0.1758,-0.1846,-0.1718,-0.1711,-0.1813,-0.1814,-0.1815,-0.1834,0,-0.1385,-0.1426,-0.1464,-0.1524,-0.1543,-0.1578,-0.162,-0.1677,-0.1709,-0.1741,-0.1753,-0.1781,-0.1772,-0.1784,-0.1803,-0.1811,-0.1823,-0.1803,-0.1805,-0.1805,-0.1688,-0.1713,-0.1579,-0.1574,-0.1838,-0.1839,-0.184,0,-0.1408,-0.1429,-0.1468,-0.154,-0.1553,-0.1599,-0.1658,-0.1708,-0.1757,-0.1782,-0.1812,-0.1822,-0.1859,-0.1838,-0.1875,-0.1863,-0.1857,-0.1853,-0.1854,-0.1715,-0.1686,-0.1578,-0.1573,-0.1847,-0.1847,-0.1846,-0.1846,0,-0.1395,-0.1452,-0.1473,-0.1485,-0.1563,-0.1597,-0.164,-0.171,-0.1743,-0.1807,-0.1818,-0.1874,-0.1888,-0.1908,-0.1894,-0.1902,-0.1907,-0.1922,-0.1796,-0.1787,-0.166,-0.1637,-0.1933,-0.1933,-0.1933,-0.1933,-0.1933,0,-0.1383,-0.1439,-0.1457,-0.1471,-0.1499,-0.1587,-0.1641,-0.1683,-0.1747,-0.1766,-0.1831,-0.1829,-0.1905,-0.1906,-0.1908,-0.185,-0.1923,-0.1795,-0.1782,-0.1674,-0.1653,-0.1876,-0.1869,-0.1934,-0.1933,-0.1933,-0.1933,0,-0.1424,-0.1418,-0.1459,-0.1491,-0.1502,-0.1531,-0.1607,-0.1637,-0.1709,-0.1728,-0.1745,-0.1814,-0.1818,-0.1844,-0.1874,-0.1843,-0.1819,-0.177,-0.1624,-0.1591,-0.1692,-0.1688,-0.1673,-0.1668,-0.1664,-0.1661,-0.1659,0,-0.1448,-0.1461,-0.1455,-0.1418,-0.1435,-0.1477,-0.1494,-0.1595,-0.1626,-0.1685,-0.1675,-0.1703,-0.167,-0.1664,-0.1643,-0.1618,-0.169,-0.1471,-0.1455,-0.1675,-0.1665,-0.1667,-0.1668,-0.1326,-0.1321,-0.1317,-0.1314,0,-0.1483,-0.1477,-0.1472,-0.1383,-0.1366,-0.137,-0.1404,-0.143,-0.1532,-0.1532,-0.1542,-0.1525,-0.1506,-0.1428,-0.1377,-0.1342,-0.1475,-0.1381,-0.1665,-0.1391,-0.1344,-0.1335,-0.1349,-0.1276,-0.128,-0.1283,-0.1285,-0.1286,-0.148,-0.1458,-0.139,-0.1319,-0.1276,-0.1233,-0.1215,-0.1263,-0.1278,-0.1269,-0.1356,-0.1287,-0.1311,-0.1163,-0.1109,-0.1085,-0.119,-0.1164,-0.118,-0.12,-0.1134,-0.108,-0.0952,-0.0954,-0.0955,-0.0957,-0.0958,0,-0.136,-0.1354,-0.1309,-0.1176,-0.1082,-0.1113,-0.1114,-0.1083,-0.1038,-0.1085,-0.1071,-0.0966,-0.0887,-0.0918,-0.0821,-0.08,-0.0828,-0.077,-0.0825,-0.086,-0.0891,-0.0814,-0.0546,-0.0545,-0.0544,-0.0543,0,0,-0.1269,-0.1185,-0.1174,-0.0981,-0.0919,-0.0793,-0.0771,-0.0747,-0.0762,-0.0732,-0.0722,-0.0811,-0.0859,-0.0706,-0.0668,-0.0596,-0.0722,-0.0555,-0.0879,-0.0975,-0.1006,-0.1101,-0.1017,0,0,0,0,0]},{"header":{"parameterUnit":"m.s-1","parameterCategory":2,"la1":30.2991,"la2":30.254,"lo1":-89.0895,"lo2":-89.0444,"dy":0.0017,"dx":0.0017,"nx":28,"ny":28,"refTime":"2024-03-05T09:00:00:Z","depth":"2","parameterNumber":3,"parameterNumberName":"V-component_of_CURRENTS"},"data":[0,0,0,0,0,0,0,0,0,0,0,0,0,0,0,0,0,0,0,0,0,0,0,0,0,0,0,0,0,0,0,0,0,0,0,0,0,0,0,0,0,0,0,0,0,0,0,0,0,0,0,0,0,0,0,0,0,0,-0.0115,-0.0114,0,-0.0091,-0.009,-0.009,-0.0053,-0.0053,-0.0053,-0.0052,0.0045,0.0047,0.0049,0,0,0,0,0,0,0,0,0,0,0,0,0,-0.0055,-0.0057,-0.0115,-0.0114,-0.0114,-0.0091,-0.009,-0.009,-0.0054,-0.0053,-0.0052,-0.0052,0.0044,0.0046,0.0049,0,0,0,0,0,0,0,0,0,0,0,0,0,-0.0059,-0.0057,-0.0115,-0.0095,-0.0093,-0.0091,-0.009,-0.009,-0.0054,-0.0053,-0.0052,-0.0052,0.0043,0.0046,0.0049,0.0056,0,0,0.0059,0.0061,0,0,0,0,0,0,0,0,-0.0059,-0.0061,-0.0098,-0.0096,-0.0094,-0.0076,-0.0034,-0.0038,-0.0054,-0.0066,-0.0052,-0.0051,0.0009,0.0015,0.002,0.006,0.0064,0.0059,0.0061,0.0063,0.0064,0,0,0,0,0,0,0,-0.0059,-0.0062,-0.0103,-0.0098,-0.0096,-0.0062,-0.0063,-0.0034,-0.003,-0.0065,-0.0063,-0.0064,0.0011,0.0017,0.0023,0.0066,0.0059,0.0062,0.0064,0.0066,0.0138,0.0138,0,0,0,0,0,0,-0.0071,-0.0062,-0.0104,-0.0102,-0.0077,-0.0064,-0.0065,-0.0081,-0.0032,-0.0025,-0.0065,-0.0062,0.0011,0.0019,0.0026,0.0052,0.0063,0.0066,0.0068,0.0138,0.0138,0.0138,0,0,0,0,0,0,-0.007,-0.0076,-0.0105,-0.0082,-0.0084,-0.0067,-0.0085,-0.0081,-0.0074,-0.0032,-0.0023,-0.0062,0.0012,0.0022,0.0053,0.0056,0.0067,0.007,0.0138,0.0138,0.0138,0.0094,0,0,0,0,0,0,-0.0069,-0.0076,-0.0089,-0.0084,-0.0086,-0.011,-0.0086,-0.0081,-0.0076,-0.0073,-0.0027,-0.0017,0.0013,0.0048,0.0056,0.0061,0.0073,0.0138,0.0138,0.0138,0.0096,0.0093,0.009,0,0,0,0,0,-0.0067,-0.0095,-0.009,-0.0095,-0.0106,-0.0111,-0.0109,-0.0092,-0.0077,-0.0081,-0.0044,-0.0019,0.0054,0.005,0.006,0.0065,0.0138,0.0138,0.0138,0.0097,0.0094,0.009,0,0,0,0,0,0,-0.0071,-0.0094,-0.0089,-0.012,-0.0117,-0.0106,-0.0111,-0.0096,-0.0072,-0.0065,-0.002,-0.0008,0.002,0.0047,0.0042,0.0086,0.01,0.0102,0.0066,0.0063,0.006,0.0048,0.0075,0,0,0,0,0,-0.0081,-0.0111,-0.0113,-0.0136,-0.0139,-0.0124,-0.0122,-0.0112,-0.0092,-0.0081,-0.0047,-0.0008,0.0026,0.0047,0.0076,0.0101,0.0149,0.0111,0.0108,0.0106,0.0102,0.0179,0.0183,0.0137,0.0137,0.0137,0,0,-0.0087,-0.0104,-0.0119,-0.0139,-0.0135,-0.0146,-0.0121,-0.0127,-0.0124,-0.0074,-0.0056,-0.0019,0.0028,0.0055,0.007,0.008,0.0145,0.0105,0.0103,0.0101,0.018,0.0184,0.0189,0.0137,0.0137,0.0137,0,0,-0.0123,-0.0132,-0.0169,-0.0173,-0.018,-0.0166,-0.017,-0.0159,-0.0142,-0.0124,-0.0083,-0.0044,-0.0001,0.004,0.0066,0.0067,0.0125,0.0073,0.0055,0.013,0.0135,0.014,0.0213,0.0225,0.0076,0.0076,0.0076,0,-0.0125,-0.0178,-0.0176,-0.0207,-0.0212,-0.0178,-0.0203,-0.0181,-0.0157,-0.0139,-0.0125,-0.0046,-0.0005,0.0042,0.0042,0.0062,0.0112,0.0063,0.0128,0.0133,0.0139,0.0213,0.0226,0.0074,0.0075,0.0075,0.0075,0,-0.0189,-0.0224,-0.0243,-0.0272,-0.0271,-0.0288,-0.026,-0.0243,-0.0213,-0.0186,-0.0139,-0.0081,-0.003,-0.0011,0.0016,0.0072,0.0097,0.0112,0.0136,0.0141,0.0219,0.0233,0.0071,0.0072,0.0073,0.0073,0,0,-0.0206,-0.0278,-0.0283,-0.0309,-0.0308,-0.0315,-0.0299,-0.0276,-0.0256,-0.0214,-0.0182,-0.0119,-0.0078,-0.0047,0.0001,0.0063,0.0149,0.0098,0.0103,0.017,0.0319,0.0245,0.0254,0.0177,0.0179,0.0181,0.036,0,-0.0251,-0.0341,-0.0349,-0.0395,-0.043,-0.0389,-0.0374,-0.034,-0.0293,-0.0248,-0.0172,-0.0126,-0.0093,-0.0062,0.0005,0.0122,0.0184,0.0099,0.0305,0.0311,0.0243,0.0267,0.0241,0.0389,0.0375,0.0378,0.0379,0,-0.0306,-0.0359,-0.0437,-0.0468,-0.0474,-0.048,-0.0442,-0.0427,-0.0344,-0.0305,-0.0238,-0.0173,-0.0067,-0.0049,0.0153,0.0099,0.0197,0.028,0.029,0.0242,0.0262,0.0381,0.0417,0.0405,0.0402,0.0401,0.0399,0,-0.0341,-0.0409,-0.0478,-0.0493,-0.0518,-0.0519,-0.0507,-0.0445,-0.0424,-0.0335,-0.0301,-0.0172,-0.0094,0.0046,0.0204,0.0198,0.0417,0.044,0.0462,0.0459,0.0486,0.048,0.0563,0.0563,0.0563,0.0562,0.0562,0,-0.0397,-0.044,-0.0502,-0.0543,-0.0579,-0.0567,-0.0572,-0.0534,-0.0472,-0.0439,-0.0336,-0.0276,-0.0067,0.0074,0.0213,0.0378,0.0435,0.0462,0.0498,0.0468,0.0459,0.0505,0.0496,0.0569,0.0567,0.0566,0.0565,0,-0.0432,-0.0482,-0.0555,-0.0603,-0.0612,-0.0634,-0.0633,-0.0624,-0.0557,-0.0506,-0.0478,-0.0315,-0.0128,0.0054,0.0305,0.0385,0.055,0.058,0.0519,0.0541,0.0549,0.0535,0.0662,0.0661,0.066,0.0659,0.0658,0,-0.0469,-0.0522,-0.0605,-0.0647,-0.0674,-0.0703,-0.0715,-0.0672,-0.065,-0.0532,-0.0502,-0.0328,-0.0194,0.0118,0.0302,0.0525,0.0537,0.0591,0.0554,0.0535,0.0559,0.0547,0.0535,0.0604,0.0603,0.0602,0.0601,0,-0.0526,-0.0557,-0.0621,-0.0713,-0.0756,-0.0791,-0.0796,-0.079,-0.0716,-0.0648,-0.0508,-0.0393,-0.0123,0.0112,0.033,0.0448,0.0553,0.0574,0.0622,0.0536,0.0482,0.0503,0.0494,0.0593,0.0594,0.0594,0.0595,0.0595,-0.0558,-0.061,-0.0702,-0.0775,-0.0824,-0.0856,-0.087,-0.0847,-0.0801,-0.0673,-0.054,-0.034,-0.0132,0.0189,0.0354,0.0496,0.0503,0.0555,0.0559,0.0564,0.0478,0.0419,0.0506,0.0506,0.0506,0.0506,0.0506,0,-0.0611,-0.0674,-0.0755,-0.0844,-0.0895,-0.0902,-0.0905,-0.0882,-0.082,-0.0681,-0.0527,-0.027,-0.0043,0.0174,0.039,0.0503,0.0528,0.0518,0.0545,0.0551,0.0556,0.0471,0.0498,0.0499,0.0499,0.0499,0,0,-0.0647,-0.0744,-0.0786,-0.0888,-0.0932,-0.0969,-0.0966,-0.0897,-0.0794,-0.0644,-0.0484,-0.0288,-0.0026,0.0126,0.0281,0.0401,0.044,0.0403,0.0393,0.0408,0.0413,0.0555,0.0426,0,0,0,0,0]}],[{"header":{"parameterUnit":"m.s-1","parameterCategory":2,"la1":30.2991,"la2":30.254,"lo1":-89.0895,"lo2":-89.0444,"dy":0.0017,"dx":0.0017,"nx":28,"ny":28,"refTime":"2024-03-05T09:00:00:Z","depth":"4","parameterNumber":2,"parameterNumberName":"U-component_of_CURRENTS"},"data":[0,0,0,0,0,0,0,0,0,0,0,0,0,0,0,0,0,0,0,0,0,0,0,0,0,0,0,0,0,0,0,0,0,0,0,0,0,0,0,0,0,0,0,0,0,0,0,0,0,0,0,0,0,0,0,0,0,0,-0.0886,-0.0887,0,-0.0947,-0.0948,-0.0949,-0.0982,-0.0982,-0.0982,-0.0982,-0.1031,-0.1032,-0.1033,0,0,0,0,0,0,0,0,0,0,0,0,0,-0.0842,-0.0843,-0.0886,-0.0887,-0.0888,-0.0947,-0.0948,-0.0949,-0.0982,-0.0982,-0.0982,-0.0982,-0.103,-0.1032,-0.1033,0,0,0,0,0,0,0,0,0,0,0,0,0,-0.0879,-0.0843,-0.0886,-0.091,-0.0913,-0.0947,-0.0948,-0.0949,-0.0982,-0.0982,-0.0982,-0.0982,-0.103,-0.1032,-0.1033,-0.1047,0,0,-0.104,-0.104,0,0,0,0,0,0,0,0,-0.0877,-0.0881,-0.0906,-0.0909,-0.0912,-0.0956,-0.095,-0.0981,-0.0982,-0.0957,-0.0982,-0.0982,-0.1003,-0.1008,-0.1022,-0.105,-0.1052,-0.104,-0.1041,-0.1042,-0.1042,0,0,0,0,0,0,0,-0.0875,-0.0879,-0.0912,-0.0907,-0.091,-0.0933,-0.0938,-0.0957,-0.0981,-0.096,-0.0962,-0.0966,-0.1005,-0.102,-0.1023,-0.1053,-0.104,-0.1042,-0.1043,-0.1044,-0.1134,-0.1135,0,0,0,0,0,0,-0.0862,-0.0876,-0.091,-0.0914,-0.0892,-0.0933,-0.0939,-0.0943,-0.0981,-0.0987,-0.0966,-0.0968,-0.1016,-0.102,-0.1025,-0.1082,-0.1042,-0.1044,-0.1045,-0.1133,-0.1134,-0.1135,0,0,0,0,0,0,-0.0861,-0.0864,-0.0908,-0.0895,-0.0902,-0.0934,-0.0938,-0.0944,-0.0969,-0.0986,-0.0992,-0.0986,-0.1016,-0.1022,-0.106,-0.1082,-0.1045,-0.1046,-0.1131,-0.1133,-0.1135,-0.1171,0,0,0,0,0,0,-0.0859,-0.0864,-0.0867,-0.0894,-0.0902,-0.0937,-0.0938,-0.0945,-0.0971,-0.0973,-0.1005,-0.1009,-0.1017,-0.1057,-0.1062,-0.1084,-0.1048,-0.113,-0.1132,-0.1134,-0.1168,-0.1174,-0.1179,0,0,0,0,0,-0.0857,-0.0861,-0.0867,-0.0871,-0.0905,-0.0937,-0.0944,-0.0967,-0.0972,-0.0989,-0.1014,-0.1008,-0.1074,-0.106,-0.1065,-0.1089,-0.1129,-0.1131,-0.1134,-0.1166,-0.1173,-0.1178,0,0,0,0,0,0,-0.0843,-0.0865,-0.0872,-0.0882,-0.0911,-0.0942,-0.0957,-0.0974,-0.1008,-0.1012,-0.1026,-0.1033,-0.1074,-0.1077,-0.1061,-0.1121,-0.1099,-0.1103,-0.1122,-0.1128,-0.1133,-0.1123,-0.105,0,0,0,0,0,-0.084,-0.0848,-0.0877,-0.0886,-0.09,-0.0931,-0.0948,-0.0968,-0.0998,-0.1013,-0.1038,-0.1062,-0.1088,-0.1105,-0.1127,-0.1161,-0.1147,-0.1179,-0.1185,-0.1189,-0.1184,-0.1186,-0.119,-0.1144,-0.1144,-0.1144,0,0,-0.0835,-0.0849,-0.0853,-0.0883,-0.0905,-0.0938,-0.0942,-0.0974,-0.1007,-0.1012,-0.1065,-0.1082,-0.1101,-0.1143,-0.1161,-0.115,-0.1195,-0.1192,-0.1196,-0.1189,-0.1189,-0.1193,-0.1197,-0.1146,-0.1146,-0.1145,0,0,-0.0832,-0.0844,-0.0853,-0.0882,-0.0919,-0.0946,-0.0957,-0.1002,-0.1028,-0.1078,-0.109,-0.112,-0.1166,-0.1183,-0.1196,-0.1241,-0.1222,-0.1252,-0.1271,-0.1273,-0.1276,-0.1279,-0.1266,-0.1267,-0.1255,-0.1255,-0.1255,0,-0.0827,-0.0844,-0.0863,-0.0888,-0.0915,-0.0951,-0.0982,-0.1017,-0.1073,-0.1095,-0.11,-0.1166,-0.1183,-0.1224,-0.1243,-0.1252,-0.1244,-0.1246,-0.1278,-0.1281,-0.1283,-0.1269,-0.1269,-0.1257,-0.1257,-0.1257,-0.1257,0,-0.0833,-0.0859,-0.0869,-0.0913,-0.0947,-0.098,-0.103,-0.1072,-0.1107,-0.1138,-0.119,-0.1215,-0.1249,-0.1264,-0.127,-0.1301,-0.1287,-0.1283,-0.1259,-0.1289,-0.1273,-0.1273,-0.126,-0.1259,-0.1259,-0.1258,0,0,-0.0793,-0.0861,-0.0866,-0.0898,-0.0967,-0.0995,-0.1055,-0.1115,-0.115,-0.1201,-0.1238,-0.1287,-0.1294,-0.1308,-0.1318,-0.1324,-0.1336,-0.1314,-0.1313,-0.1293,-0.133,-0.1251,-0.1243,-0.1339,-0.1339,-0.1339,-0.1311,0,-0.0796,-0.0845,-0.0883,-0.0943,-0.0977,-0.1037,-0.1089,-0.1148,-0.1195,-0.1242,-0.1269,-0.1308,-0.1313,-0.1329,-0.1338,-0.1337,-0.1338,-0.1343,-0.1309,-0.1308,-0.1228,-0.1241,-0.134,-0.1311,-0.1311,-0.1311,-0.1311,0,-0.0785,-0.0827,-0.0881,-0.0966,-0.0985,-0.1031,-0.1115,-0.1167,-0.1237,-0.1271,-0.131,-0.133,-0.1357,-0.135,-0.1357,-0.136,-0.1348,-0.134,-0.1339,-0.1249,-0.1229,-0.1275,-0.1311,-0.1311,-0.1311,-0.1311,-0.1311,0,-0.0736,-0.0822,-0.0867,-0.0897,-0.0997,-0.1036,-0.1093,-0.1173,-0.1213,-0.1284,-0.1308,-0.1346,-0.1358,-0.1359,-0.1355,-0.1356,-0.1345,-0.1343,-0.1258,-0.1252,-0.1315,-0.1312,-0.1338,-0.1338,-0.1338,-0.1338,-0.1338,0,-0.071,-0.0744,-0.0852,-0.0873,-0.0935,-0.1015,-0.1073,-0.1137,-0.1212,-0.1243,-0.1311,-0.1324,-0.136,-0.1362,-0.1355,-0.1301,-0.1345,-0.1254,-0.1239,-0.1332,-0.1331,-0.1315,-0.1312,-0.1337,-0.1337,-0.1337,-0.1338,0,-0.0621,-0.07,-0.0753,-0.0867,-0.0908,-0.0945,-0.1053,-0.1086,-0.1175,-0.1214,-0.1234,-0.1304,-0.13,-0.1323,-0.1316,-0.1284,-0.1255,-0.1227,-0.1318,-0.131,-0.1158,-0.1159,-0.1117,-0.1114,-0.1111,-0.1109,-0.1107,0,-0.0576,-0.0591,-0.0716,-0.0759,-0.0809,-0.0886,-0.0932,-0.1047,-0.108,-0.1182,-0.1183,-0.122,-0.1248,-0.1173,-0.1214,-0.1189,-0.1181,-0.1162,-0.1164,-0.1146,-0.1136,-0.114,-0.1144,-0.1103,-0.1103,-0.1102,-0.1101,0,-0.0467,-0.0512,-0.0554,-0.0653,-0.0719,-0.0786,-0.0863,-0.0884,-0.1001,-0.1081,-0.1093,-0.1104,-0.1097,-0.11,-0.1093,-0.108,-0.1174,-0.1135,-0.114,-0.1141,-0.1129,-0.1122,-0.1129,-0.1092,-0.1094,-0.1094,-0.1095,0,-0.0374,-0.037,-0.0443,-0.0522,-0.0616,-0.0678,-0.0735,-0.0786,-0.0841,-0.0966,-0.0957,-0.101,-0.1066,-0.1042,-0.1037,-0.1018,-0.1002,-0.0976,-0.0989,-0.1,-0.0979,-0.0947,-0.0833,0,0,0,0,0,-0.0282,-0.0264,-0.0315,-0.0417,-0.0517,-0.0575,-0.0687,-0.0749,-0.0859,-0.0831,-0.09,-0.0892,-0.0897,-0.0931,-0.0885,-0.0986,-0.1007,-0.0931,-0.0985,-0.1043,-0.1053,-0.1041,0,0,0,0,0,0,-0.0222,-0.0233,-0.026,-0.0323,-0.0374,-0.0471,-0.054,-0.062,-0.0626,-0.0733,-0.0734,-0.0815,-0.0826,-0.0881,-0.0849,-0.0861,-0.0875,-0.0971,-0.0969,-0.1037,-0.1046,-0.1055,-0.1046,0,0,0,0,0]},{"header":{"parameterUnit":"m.s-1","parameterCategory":2,"la1":30.2991,"la2":30.254,"lo1":-89.0895,"lo2":-89.0444,"dy":0.0017,"dx":0.0017,"nx":28,"ny":28,"refTime":"2024-03-05T09:00:00:Z","depth":"4","parameterNumber":3,"parameterNumberName":"V-component_of_CURRENTS"},"data":[0,0,0,0,0,0,0,0,0,0,0,0,0,0,0,0,0,0,0,0,0,0,0,0,0,0,0,0,0,0,0,0,0,0,0,0,0,0,0,0,0,0,0,0,0,0,0,0,0,0,0,0,0,0,0,0,0,0,-0.0063,-0.0064,0,-0.0063,-0.0063,-0.0062,-0.0043,-0.0042,-0.0042,-0.0042,0.0014,0.0015,0.0016,0,0,0,0,0,0,0,0,0,0,0,0,0,-0.0002,-0.0003,-0.0063,-0.0064,-0.0064,-0.0063,-0.0063,-0.0062,-0.0043,-0.0042,-0.0042,-0.0042,0.0013,0.0014,0.0016,0,0,0,0,0,0,0,0,0,0,0,0,0,-0.0016,-0.0003,-0.0063,-0.0055,-0.0054,-0.0063,-0.0063,-0.0062,-0.0043,-0.0042,-0.0042,-0.0041,0.0013,0.0014,0.0016,0.0016,0,0,0.0021,0.0022,0,0,0,0,0,0,0,0,-0.0015,-0.0018,-0.0056,-0.0056,-0.0055,-0.0054,-0.0021,-0.0034,-0.0043,-0.0046,-0.0042,-0.0041,-0.0005,-0.0002,-0.0002,0.0018,0.0021,0.0021,0.0022,0.0023,0.0024,0,0,0,0,0,0,0,-0.0014,-0.0018,-0.0061,-0.0056,-0.0056,-0.0036,-0.0037,-0.0023,-0.0026,-0.0045,-0.0044,-0.0047,-0.0004,-0.0003,-0.0,0.0022,0.0021,0.0023,0.0024,0.0025,0.0066,0.0066,0,0,0,0,0,0,-0.0021,-0.0017,-0.0061,-0.0062,-0.0035,-0.0038,-0.0039,-0.0053,-0.0027,-0.0024,-0.0048,-0.0046,-0.0007,-0.0002,0.0002,0.0014,0.0023,0.0025,0.0026,0.0066,0.0066,0.0066,0,0,0,0,0,0,-0.002,-0.0026,-0.0062,-0.004,-0.0043,-0.004,-0.0055,-0.0054,-0.0053,-0.003,-0.0025,-0.0049,-0.0006,-0.0,0.0015,0.0016,0.0026,0.0027,0.0066,0.0066,0.0066,0.0031,0,0,0,0,0,0,-0.0019,-0.0026,-0.0037,-0.0041,-0.0045,-0.0075,-0.0056,-0.0054,-0.0057,-0.0055,-0.003,-0.0024,-0.0005,0.0012,0.0017,0.0018,0.0028,0.0066,0.0066,0.0066,0.0032,0.003,0.0028,0,0,0,0,0,-0.0016,-0.0041,-0.0038,-0.0043,-0.0061,-0.0076,-0.0076,-0.007,-0.0057,-0.0065,-0.0041,-0.0025,0.0017,0.0013,0.0019,0.0021,0.0066,0.0066,0.0066,0.0033,0.003,0.0028,0,0,0,0,0,0,-0.0017,-0.0042,-0.0038,-0.0067,-0.0073,-0.0073,-0.0082,-0.0074,-0.0062,-0.0057,-0.0028,-0.0021,-0.0006,0.0012,0.0007,0.0034,0.0045,0.0046,0.0018,0.0016,0.0014,0.0006,0.003,0,0,0,0,0,-0.0024,-0.0051,-0.006,-0.0083,-0.0088,-0.0083,-0.0087,-0.0084,-0.0075,-0.007,-0.005,-0.0024,-0.0002,0.001,0.0028,0.0039,0.0064,0.0046,0.0044,0.0042,0.004,0.0078,0.008,0.0067,0.0067,0.0067,0,0,-0.0029,-0.0047,-0.006,-0.0085,-0.0087,-0.0102,-0.0084,-0.0098,-0.0099,-0.0065,-0.0059,-0.0034,-0.0001,0.0013,0.0022,0.0028,0.0058,0.0042,0.004,0.0039,0.0079,0.008,0.0081,0.0067,0.0067,0.0067,0,0,-0.006,-0.0069,-0.0104,-0.0111,-0.0125,-0.0119,-0.0125,-0.0126,-0.0116,-0.0111,-0.0079,-0.0054,-0.003,-0.0001,0.0017,0.0015,0.0045,0.0021,0.0005,0.0043,0.0044,0.0046,0.0075,0.0079,0.0021,0.0021,0.0021,0,-0.0062,-0.0108,-0.0112,-0.0141,-0.0148,-0.0129,-0.0153,-0.0142,-0.0134,-0.0124,-0.0115,-0.0062,-0.0035,-0.0003,-0.0002,0.001,0.0032,0.001,0.004,0.0042,0.0044,0.0073,0.0079,0.002,0.002,0.002,0.002,0,-0.0118,-0.0147,-0.0165,-0.0194,-0.0199,-0.0218,-0.0204,-0.0198,-0.0179,-0.0163,-0.0134,-0.0094,-0.0061,-0.0046,-0.0025,0.0006,0.0017,0.0031,0.0044,0.0043,0.0074,0.008,0.0017,0.0018,0.0018,0.0019,0,0,-0.014,-0.0196,-0.0202,-0.0221,-0.0229,-0.024,-0.0235,-0.0228,-0.0219,-0.0193,-0.0178,-0.013,-0.0102,-0.008,-0.0043,-0.0008,0.0027,0.0014,0.0016,0.0038,0.0105,0.0084,0.0089,0.0046,0.0047,0.0048,0.0119,0,-0.018,-0.0253,-0.026,-0.0299,-0.0328,-0.0302,-0.0301,-0.0284,-0.0255,-0.0233,-0.0176,-0.015,-0.0115,-0.0098,-0.0057,0.0007,0.0042,0.0007,0.0106,0.0109,0.0087,0.0095,0.0051,0.0123,0.0125,0.0126,0.0127,0,-0.023,-0.0273,-0.0336,-0.036,-0.0367,-0.0379,-0.0365,-0.0359,-0.0312,-0.0288,-0.0242,-0.0198,-0.0137,-0.0111,-0.0002,-0.0027,0.0032,0.0083,0.0087,0.0083,0.0099,0.0127,0.0138,0.0137,0.0136,0.0136,0.0135,0,-0.0259,-0.0315,-0.037,-0.0381,-0.0407,-0.0416,-0.0413,-0.0381,-0.0372,-0.0319,-0.0302,-0.0225,-0.0184,-0.0099,0.0005,0.0002,0.0123,0.0134,0.0173,0.0173,0.0186,0.0184,0.0209,0.0208,0.0208,0.0208,0.0208,0,-0.0301,-0.0337,-0.0392,-0.0422,-0.0463,-0.0458,-0.0476,-0.0454,-0.0423,-0.0407,-0.0334,-0.0296,-0.0179,-0.0094,-0.0003,0.0102,0.012,0.0171,0.019,0.0169,0.0164,0.019,0.0187,0.0211,0.021,0.021,0.0209,0,-0.0326,-0.0366,-0.0428,-0.0475,-0.0487,-0.0515,-0.0526,-0.0527,-0.049,-0.0464,-0.0449,-0.0347,-0.0235,-0.0118,0.0026,0.0085,0.0191,0.0225,0.0188,0.0204,0.0216,0.0211,0.0269,0.0269,0.0269,0.0269,0.0269,0,-0.0344,-0.0388,-0.0471,-0.0507,-0.0533,-0.0568,-0.0586,-0.0566,-0.0555,-0.0487,-0.0469,-0.0366,-0.0287,-0.0094,0.0021,0.0181,0.0204,0.0249,0.0235,0.021,0.0223,0.0218,0.0213,0.0269,0.0269,0.0268,0.0268,0,-0.0365,-0.0405,-0.0457,-0.0547,-0.0588,-0.0626,-0.0642,-0.0642,-0.06,-0.0573,-0.0472,-0.0366,-0.0243,-0.0096,0.0024,0.0141,0.0212,0.0248,0.0249,0.0237,0.021,0.0222,0.0217,0.0268,0.0268,0.0268,0.0268,0,-0.0367,-0.0407,-0.0486,-0.0553,-0.0624,-0.0659,-0.0671,-0.0643,-0.0626,-0.0541,-0.0509,-0.0363,-0.0277,-0.0116,0.0,0.0104,0.0127,0.0154,0.0161,0.0162,0.0105,0.0053,0.0081,0,0,0,0,0,-0.0353,-0.0393,-0.0474,-0.0559,-0.0642,-0.067,-0.0691,-0.0687,-0.0652,-0.0584,-0.0542,-0.0419,-0.0237,-0.015,-0.005,-0.0019,0.0128,0.0099,0.0158,0.0266,0.0266,0.0215,0,0,0,0,0,0,-0.0342,-0.041,-0.046,-0.0551,-0.061,-0.0678,-0.0692,-0.0673,-0.0624,-0.0574,-0.0471,-0.0406,-0.0226,-0.0289,-0.0048,-0.0017,0.003,0.0189,0.0191,0.0266,0.0266,0.0266,0.0213,0,0,0,0,0]}]]